Location: ??????
(56.0120°N, 39.1740°E)
Time: 05:35:34
(UTC+00:00)

MetOp-A - Pass Details

Date: 14 April 2026
Orbit: 520 x 765 km, 98.3° (Epoch: 10 May)

Event Time Altitude Azimuth Distance (km) Brightness Sun altitude
Exits shadow 20:49:34 65° 133° (SE) 818 3.8 -24.0°
Maximum altitude 20:50:15 78° 71° (ENE) 769 3.9 -24.0°
Drops below altitude 10° 20:55:22 10° 346° (NNW) 2,309 7.6 -24.1°
Sets 20:57:43 0° 345° (NNW) 3,247 8.6 -24.1°
